| time (UTC) | temp C | wind direction | speed KPH | gust KPH | rain 1hr cm | rain 24hr cm | rain mn cm | humidity % | barometer mb |
| 20260507182958 | 13 | 150 | 6.4 | 9.7 | 0.00 | 0.00 | 0.00 | 59 | 1013.4 |
| 20260507182456 | 13 | 140 | 6.4 | 9.7 | 0.00 | 0.00 | 0.00 | 59 | 1013.4 |
| 20260507181500 | 13 | 141 | 6.4 | 12.9 | 0.00 | 0.00 | 0.00 | 58 | 1013.3 |
| 20260507180956 | 13 | 139 | 6.4 | 11.3 | 0.00 | 0.00 | 0.00 | 59 | 1013.2 |
| 20260507180456 | 13 | 138 | 6.4 | 11.3 | 0.00 | 0.00 | 0.00 | 59 | 1013.2 |
| 20260507175958 | 13 | 137 | 6.4 | 9.7 | 0.00 | 0.00 | 0.00 | 58 | 1013.2 |
| 20260507175457 | 13 | 139 | 4.8 | 8.0 | 0.00 | 0.00 | 0.00 | 59 | 1013.2 |
| 20260507174956 | 13 | 146 | 4.8 | 8.0 | 0.00 | 0.00 | 0.00 | 59 | 1013.3 |
| 20260507173957 | 13 | 144 | 4.8 | 11.3 | 0.00 | 0.00 | 0.00 | 57 | 1013.3 |
| 20260507173456 | 13 | 149 | 6.4 | 14.5 | 0.00 | 0.00 | 0.00 | 57 | 1013.2 |
| 20260507173000 | 13 | 152 | 6.4 | 14.5 | 0.00 | 0.00 | 0.00 | 56 | 1013.3 |
| 20260507172455 | 14 | 145 | 6.4 | 14.5 | 0.00 | 0.00 | 0.00 | 56 | 1013.2 |
| 20260507171956 | 14 | 141 | 8.0 | 14.5 | 0.00 | 0.00 | 0.00 | 55 | 1013.2 |
| 20260507171458 | 14 | 142 | 9.7 | 17.7 | 0.00 | 0.00 | 0.00 | 54 | 1013.2 |
| 20260507170956 | 14 | 138 | 9.7 | 17.7 | 0.00 | 0.00 | 0.00 | 54 | 1013.3 |
| 20260507165958 | 14 | 150 | 8.0 | 17.7 | 0.00 | 0.00 | 0.00 | 54 | 1013.3 |
| 20260507164459 | 15 | 149 | 8.0 | 17.7 | 0.00 | 0.00 | 0.00 | 52 | 1013.3 |
| 20260507163956 | 15 | 145 | 9.7 | 17.7 | 0.00 | 0.00 | 0.00 | 52 | 1013.2 |
| 20260507163455 | 15 | 147 | 11.3 | 19.3 | 0.00 | 0.00 | 0.00 | 52 | 1013.2 |
| 20260507162959 | 15 | 149 | 11.3 | 19.3 | 0.00 | 0.00 | 0.00 | 50 | 1013.2 |
| 20260507162456 | 15 | 145 | 9.7 | 16.1 | 0.00 | 0.00 | 0.00 | 52 | 1013.3 |
| 20260507161956 | 15 | 149 | 9.7 | 17.7 | 0.00 | 0.00 | 0.00 | 51 | 1013.2 |
| 20260507161459 | 15 | 152 | 9.7 | 17.7 | 0.00 | 0.00 | 0.00 | 51 | 1013.2 |
| 20260507160955 | 16 | 150 | 8.0 | 14.5 | 0.00 | 0.00 | 0.00 | 51 | 1013.2 |
| 20260507160458 | 16 | 140 | 9.7 | 16.1 | 0.00 | 0.00 | 0.00 | 52 | 1013.2 |
| 20260507155958 | 15 | 132 | 11.3 | 17.7 | 0.00 | 0.00 | 0.00 | 51 | 1013.3 |
| 20260507155456 | 15 | 138 | 9.7 | 17.7 | 0.00 | 0.00 | 0.00 | 51 | 1013.3 |
| 20260507154955 | 15 | 143 | 9.7 | 19.3 | 0.00 | 0.00 | 0.00 | 52 | 1013.3 |
| 20260507154459 | 16 | 140 | 9.7 | 19.3 | 0.00 | 0.00 | 0.00 | 51 | 1013.3 |
| 20260507153456 | 16 | 144 | 11.3 | 16.1 | 0.00 | 0.00 | 0.00 | 51 | 1013.4 |
| 20260507152457 | 16 | 157 | 9.7 | 19.3 | 0.00 | 0.00 | 0.00 | 50 | 1013.4 |
| 20260507151956 | 16 | 143 | 9.7 | 17.7 | 0.00 | 0.00 | 0.00 | 50 | 1013.4 |
| 20260507151458 | 16 | 140 | 11.3 | 17.7 | 0.00 | 0.00 | 0.00 | 52 | 1013.5 |
| 20260507150956 | 16 | 144 | 11.3 | 17.7 | 0.00 | 0.00 | 0.00 | 52 | 1013.6 |
| 20260507150456 | 16 | 146 | 11.3 | 19.3 | 0.00 | 0.00 | 0.00 | 51 | 1013.5 |
| 20260507150000 | 16 | 157 | 11.3 | 19.3 | 0.00 | 0.00 | 0.00 | 50 | 1013.6 |
| 20260507144956 | 16 | 150 | 11.3 | 19.3 | 0.00 | 0.00 | 0.00 | 50 | 1013.6 |
| 20260507143956 | 16 | 142 | 9.7 | 19.3 | 0.00 | 0.00 | 0.00 | 52 | 1013.8 |
| 20260507143456 | 16 | 157 | 11.3 | 19.3 | 0.00 | 0.00 | 0.00 | 51 | 1013.8 |
| 20260507142959 | 16 | 163 | 11.3 | 22.5 | 0.00 | 0.00 | 0.00 | 51 | 1013.9 |
| 20260507142456 | 16 | 165 | 9.7 | 22.5 | 0.00 | 0.00 | 0.00 | 50 | 1013.9 |
| 20260507141956 | 16 | 163 | 9.7 | 16.1 | 0.00 | 0.00 | 0.00 | 51 | 1014.1 |
| 20260507140955 | 16 | 161 | 9.7 | 19.3 | 0.00 | 0.00 | 0.00 | 51 | 1014.2 |
| 20260507140457 | 16 | 163 | 9.7 | 17.7 | 0.00 | 0.00 | 0.00 | 51 | 1014.2 |
| 20260507140000 | 16 | 157 | 9.7 | 17.7 | 0.00 | 0.00 | 0.00 | 54 | 1014.2 |
| 20260507134956 | 15 | 147 | 9.7 | 19.3 | 0.00 | 0.00 | 0.00 | 53 | 1014.3 |
| 20260507134459 | 16 | 142 | 11.3 | 20.9 | 0.00 | 0.00 | 0.00 | 53 | 1014.4 |
| 20260507133956 | 16 | 140 | 9.7 | 20.9 | 0.00 | 0.00 | 0.00 | 55 | 1014.3 |
| 20260507133455 | 15 | 156 | 9.7 | 20.9 | 0.00 | 0.00 | 0.00 | 56 | 1014.3 |
| 20260507132958 | 15 | 168 | 12.9 | 22.5 | 0.00 | 0.00 | 0.00 | 53 | 1014.4 |
| 20260507131956 | 15 | 163 | 12.9 | 22.5 | 0.00 | 0.00 | 0.00 | 54 | 1014.5 |
| 20260507131458 | 15 | 161 | 12.9 | 22.5 | 0.00 | 0.00 | 0.00 | 54 | 1014.5 |
| 20260507130955 | 15 | 157 | 9.7 | 20.9 | 0.00 | 0.00 | 0.00 | 55 | 1014.5 |
| 20260507130455 | 15 | 157 | 9.7 | 19.3 | 0.00 | 0.00 | 0.00 | 56 | 1014.5 |
| 20260507125958 | 15 | 157 | 9.7 | 22.5 | 0.00 | 0.00 | 0.00 | 55 | 1014.5 |
| 20260507125457 | 15 | 164 | 9.7 | 22.5 | 0.00 | 0.00 | 0.00 | 54 | 1014.6 |
| 20260507124957 | 16 | 160 | 9.7 | 17.7 | 0.00 | 0.00 | 0.00 | 54 | 1014.5 |
| 20260507124458 | 16 | 141 | 11.3 | 17.7 | 0.00 | 0.00 | 0.00 | 57 | 1014.5 |
| 20260507123956 | 16 | 140 | 11.3 | 19.3 | 0.00 | 0.00 | 0.00 | 54 | 1014.6 |
| 20260507123455 | 15 | 138 | 9.7 | 19.3 | 0.00 | 0.00 | 0.00 | 54 | 1014.6 |
| 20260507122958 | 15 | 139 | 9.7 | 20.9 | 0.00 | 0.00 | 0.00 | 55 | 1014.6 |
| 20260507122455 | 15 | 152 | 11.3 | 20.9 | 0.00 | 0.00 | 0.00 | 55 | 1014.6 |
| 20260507121955 | 15 | 159 | 11.3 | 20.9 | 0.00 | 0.00 | 0.00 | 55 | 1014.6 |
| 20260507121458 | 15 | 159 | 12.9 | 22.5 | 0.00 | 0.00 | 0.00 | 57 | 1014.7 |
| 20260507120955 | 15 | 169 | 11.3 | 22.5 | 0.00 | 0.00 | 0.00 | 54 | 1014.7 |
| 20260507120456 | 15 | 178 | 9.7 | 20.9 | 0.00 | 0.00 | 0.00 | 56 | 1014.7 |
| 20260507115958 | 15 | 169 | 12.9 | 20.9 | 0.00 | 0.00 | 0.00 | 55 | 1014.8 |
| 20260507115457 | 15 | 164 | 12.9 | 20.9 | 0.00 | 0.00 | 0.00 | 54 | 1014.9 |
| 20260507114956 | 14 | 159 | 9.7 | 19.3 | 0.00 | 0.00 | 0.00 | 55 | 1014.8 |
| 20260507113956 | 14 | 157 | 9.7 | 19.3 | 0.00 | 0.00 | 0.00 | 57 | 1014.8 |
| 20260507112958 | 13 | 163 | 9.7 | 19.3 | 0.00 | 0.00 | 0.00 | 59 | 1014.9 |
| 20260507112456 | 13 | 170 | 9.7 | 19.3 | 0.00 | 0.00 | 0.00 | 59 | 1014.8 |
| 20260507111956 | 13 | 169 | 9.7 | 19.3 | 0.00 | 0.00 | 0.00 | 59 | 1014.9 |
| 20260507111459 | 13 | 158 | 9.7 | 17.7 | 0.00 | 0.00 | 0.00 | 60 | 1014.8 |
| 20260507110957 | 13 | 147 | 8.0 | 17.7 | 0.00 | 0.00 | 0.00 | 63 | 1014.9 |
| 20260507110455 | 13 | 138 | 8.0 | 12.9 | 0.00 | 0.00 | 0.00 | 65 | 1014.9 |
| 20260507105959 | 12 | 141 | 8.0 | 12.9 | 0.00 | 0.00 | 0.00 | 66 | 1015.0 |
| 20260507105456 | 12 | 151 | 8.0 | 14.5 | 0.00 | 0.00 | 0.00 | 68 | 1015.0 |
| 20260507104955 | 12 | 159 | 8.0 | 16.1 | 0.00 | 0.00 | 0.00 | 66 | 1015.0 |
| 20260507103955 | 12 | 156 | 8.0 | 16.1 | 0.00 | 0.00 | 0.00 | 69 | 1015.1 |
| 20260507103455 | 12 | 155 | 8.0 | 16.1 | 0.00 | 0.00 | 0.00 | 67 | 1015.1 |
| 20260507102959 | 12 | 151 | 8.0 | 14.5 | 0.00 | 0.00 | 0.00 | 69 | 1015.2 |
| 20260507102456 | 12 | 157 | 9.7 | 17.7 | 0.00 | 0.00 | 0.00 | 69 | 1015.1 |
| 20260507101955 | 12 | 158 | 8.0 | 17.7 | 0.00 | 0.00 | 0.00 | 69 | 1015.1 |
| 20260507101458 | 11 | 158 | 8.0 | 14.5 | 0.00 | 0.00 | 0.00 | 71 | 1015.1 |
| 20260507100955 | 11 | 154 | 6.4 | 14.5 | 0.00 | 0.00 | 0.00 | 71 | 1015.1 |
| 20260507100455 | 11 | 162 | 6.4 | 16.1 | 0.00 | 0.00 | 0.00 | 73 | 1015.1 |
| 20260507095958 | 11 | 165 | 9.7 | 16.1 | 0.00 | 0.00 | 0.00 | 72 | 1015.1 |
| 20260507095456 | 11 | 159 | 8.0 | 16.1 | 0.00 | 0.00 | 0.00 | 72 | 1015.2 |
| 20260507094956 | 11 | 143 | 6.4 | 12.9 | 0.00 | 0.00 | 0.00 | 73 | 1015.2 |
| 20260507094458 | 11 | 136 | 8.0 | 12.9 | 0.00 | 0.00 | 0.00 | 74 | 1015.2 |
| 20260507093955 | 11 | 140 | 8.0 | 12.9 | 0.00 | 0.00 | 0.00 | 74 | 1015.1 |
| 20260507093457 | 11 | 146 | 6.4 | 11.3 | 0.00 | 0.00 | 0.00 | 73 | 1015.2 |
| 20260507092958 | 11 | 153 | 6.4 | 14.5 | 0.00 | 0.00 | 0.00 | 76 | 1015.1 |
| 20260507092456 | 11 | 151 | 6.4 | 14.5 | 0.00 | 0.00 | 0.00 | 74 | 1015.2 |
| 20260507091955 | 10 | 144 | 4.8 | 12.9 | 0.00 | 0.00 | 0.00 | 76 | 1015.2 |
| 20260507091458 | 10 | 142 | 3.2 | 8.0 | 0.00 | 0.00 | 0.00 | 77 | 1015.1 |
| 20260507090457 | 10 | 122 | 1.6 | 8.0 | 0.00 | 0.00 | 0.00 | 80 | 1015.1 |
| 20260507085958 | 10 | 127 | 1.6 | 6.4 | 0.00 | 0.00 | 0.00 | 80 | 1015.2 |
| 20260507085457 | 9 | 107 | 1.6 | 8.0 | 0.00 | 0.00 | 0.00 | 80 | 1015.1 |
| 20260507084955 | 9 | 89 | 1.6 | 8.0 | 0.00 | 0.00 | 0.00 | 80 | 1015.1 |
| 20260507084458 | 9 | 0 | 0.0 | 3.2 | 0.00 | 0.00 | 0.00 | 81 | 1015.1 |
| 20260507083955 | 8 | 0 | 0.0 | 1.6 | 0.00 | 0.00 | 0.00 | 81 | 1015.2 |
| 20260507082456 | 8 | 0 | 0.0 | 1.6 | 0.00 | 0.00 | 0.00 | 83 | 1015.2 |
| 20260507081955 | 8 | 0 | 0.0 | 1.6 | 0.00 | 0.00 | 0.00 | 84 | 1015.2 |
| 20260507080955 | 8 | 0 | 0.0 | 0.0 | 0.00 | 0.00 | 0.00 | 83 | 1015.2 |
| 20260507075456 | 8 | 0 | 0.0 | 0.0 | 0.00 | 0.00 | 0.00 | 83 | 1015.2 |
| 20260507074955 | 8 | 0 | 0.0 | 0.0 | 0.00 | 0.00 | 0.00 | 84 | 1015.3 |
| 20260507072958 | 7 | 0 | 0.0 | 1.6 | 0.00 | 0.00 | 0.00 | 85 | 1015.2 |
| 20260507072455 | 7 | 0 | 0.0 | 1.6 | 0.00 | 0.00 | 0.00 | 85 | 1015.1 |
| 20260507071956 | 7 | 0 | 0.0 | 1.6 | 0.00 | 0.00 | 0.00 | 85 | 1015.1 |
| 20260507071458 | 7 | 0 | 0.0 | 1.6 | 0.00 | 0.00 | 0.00 | 86 | 1015.1 |
| 20260507070955 | 7 | 0 | 0.0 | 0.0 | 0.00 | 0.00 | 0.00 | 86 | 1015.0 |
| 20260507065958 | 7 | 0 | 0.0 | 1.6 | 0.00 | 0.00 | 0.00 | 86 | 1015.0 |
| 20260507065455 | 7 | 0 | 0.0 | 1.6 | 0.00 | 0.00 | 0.00 | 87 | 1015.0 |
| 20260507064955 | 6 | 0 | 0.0 | 1.6 | 0.00 | 0.00 | 0.00 | 87 | 1015.0 |
| 20260507063956 | 6 | 0 | 0.0 | 3.2 | 0.00 | 0.00 | 0.00 | 88 | 1014.9 |
| 20260507063456 | 6 | 0 | 0.0 | 3.2 | 0.00 | 0.00 | 0.00 | 88 | 1015.0 |
| 20260507062456 | 6 | 0 | 0.0 | 0.0 | 0.00 | 0.00 | 0.00 | 89 | 1015.0 |
| 20260507061956 | 6 | 0 | 0.0 | 0.0 | 0.00 | 0.00 | 0.00 | 89 | 1015.0 |
| 20260507061457 | 6 | 0 | 0.0 | 0.0 | 0.00 | 0.00 | 0.00 | 89 | 1015.0 |
| 20260507060956 | 6 | 0 | 0.0 | 0.0 | 0.00 | 0.00 | 0.00 | 89 | 1015.0 |
| 20260507060454 | 5 | 0 | 0.0 | 0.0 | 0.00 | 0.00 | 0.00 | 89 | 1014.9 |
| 20260507055958 | 5 | 0 | 0.0 | 0.0 | 0.00 | 0.00 | 0.00 | 90 | 1014.9 |
| 20260507055456 | 5 | 0 | 0.0 | 0.0 | 0.00 | 0.00 | 0.00 | 90 | 1014.9 |
| 20260507054956 | 5 | 0 | 0.0 | 0.0 | 0.00 | 0.00 | 0.00 | 90 | 1014.9 |
| 20260507054457 | 5 | 0 | 0.0 | 1.6 | 0.00 | 0.00 | 0.00 | 90 | 1014.8 |
| 20260507053956 | 5 | 0 | 0.0 | 3.2 | 0.00 | 0.00 | 0.00 | 90 | 1014.8 |
| 20260507053455 | 5 | 0 | 0.0 | 3.2 | 0.00 | 0.00 | 0.00 | 90 | 1014.8 |
| 20260507052959 | 5 | 0 | 0.0 | 0.0 | 0.00 | 0.00 | 0.00 | 90 | 1014.7 |
| 20260507052455 | 4 | 0 | 0.0 | 0.0 | 0.00 | 0.00 | 0.00 | 90 | 1014.7 |
| 20260507051955 | 4 | 0 | 0.0 | 0.0 | 0.00 | 0.00 | 0.00 | 90 | 1014.7 |
| 20260507051458 | 4 | 0 | 0.0 | 0.0 | 0.00 | 0.00 | 0.00 | 90 | 1014.7 |
| 20260507050956 | 4 | 0 | 0.0 | 0.0 | 0.00 | 0.00 | 0.00 | 90 | 1014.7 |
| 20260507050455 | 3 | 0 | 0.0 | 0.0 | 0.00 | 0.00 | 0.00 | 90 | 1014.7 |
| 20260507045957 | 3 | 0 | 0.0 | 0.0 | 0.00 | 0.00 | 0.00 | 90 | 1014.7 |
| 20260507044956 | 3 | 0 | 0.0 | 0.0 | 0.00 | 0.00 | 0.00 | 90 | 1014.7 |
| 20260507043456 | 3 | 0 | 0.0 | 0.0 | 0.00 | 0.00 | 0.00 | 89 | 1014.6 |
| 20260507042959 | 3 | 0 | 0.0 | 0.0 | 0.00 | 0.00 | 0.00 | 89 | 1014.7 |
| 20260507042456 | 4 | 0 | 0.0 | 0.0 | 0.00 | 0.00 | 0.00 | 89 | 1014.7 |
| 20260507041955 | 4 | 0 | 0.0 | 0.0 | 0.00 | 0.00 | 0.00 | 89 | 1014.7 |
| 20260507041459 | 4 | 0 | 0.0 | 0.0 | 0.00 | 0.00 | 0.00 | 88 | 1014.6 |
| 20260507040956 | 4 | 0 | 0.0 | 0.0 | 0.00 | 0.00 | 0.00 | 88 | 1014.6 |
| 20260507040455 | 5 | 0 | 0.0 | 0.0 | 0.00 | 0.00 | 0.00 | 88 | 1014.7 |
| 20260507035958 | 5 | 0 | 0.0 | 0.0 | 0.00 | 0.00 | 0.00 | 88 | 1014.7 |
| 20260507035455 | 5 | 0 | 0.0 | 0.0 | 0.00 | 0.00 | 0.00 | 88 | 1014.7 |
| 20260507034956 | 5 | 0 | 0.0 | 0.0 | 0.00 | 0.00 | 0.00 | 88 | 1014.7 |
| 20260507034457 | 5 | 0 | 0.0 | 0.0 | 0.00 | 0.00 | 0.00 | 88 | 1014.7 |
| 20260507033956 | 5 | 0 | 0.0 | 0.0 | 0.00 | 0.00 | 0.00 | 88 | 1014.7 |
| 20260507033456 | 5 | 0 | 0.0 | 0.0 | 0.00 | 0.00 | 0.00 | 88 | 1014.7 |
| 20260507032958 | 5 | 0 | 0.0 | 0.0 | 0.00 | 0.00 | 0.00 | 87 | 1014.7 |
| 20260507032456 | 5 | 0 | 0.0 | 0.0 | 0.00 | 0.00 | 0.00 | 87 | 1014.8 |
| 20260507031954 | 5 | 0 | 0.0 | 1.6 | 0.00 | 0.00 | 0.00 | 87 | 1014.7 |
| 20260507031458 | 5 | 0 | 0.0 | 1.6 | 0.00 | 0.00 | 0.00 | 86 | 1014.7 |
| 20260507030956 | 5 | 0 | 0.0 | 0.0 | 0.00 | 0.00 | 0.00 | 86 | 1014.8 |
| 20260507030454 | 5 | 0 | 0.0 | 0.0 | 0.00 | 0.00 | 0.00 | 86 | 1014.8 |
| 20260507025958 | 5 | 0 | 0.0 | 0.0 | 0.00 | 0.00 | 0.00 | 86 | 1014.8 |
| 20260507025455 | 5 | 0 | 0.0 | 1.6 | 0.00 | 0.00 | 0.00 | 85 | 1014.8 |
| 20260507023955 | 5 | 0 | 0.0 | 1.6 | 0.00 | 0.00 | 0.00 | 85 | 1014.8 |
| 20260507022958 | 5 | 0 | 0.0 | 4.8 | 0.00 | 0.00 | 0.00 | 84 | 1014.8 |
| 20260507021458 | 6 | 0 | 0.0 | 0.0 | 0.00 | 0.00 | 0.00 | 81 | 1014.8 |
| 20260507020955 | 6 | 0 | 0.0 | 3.2 | 0.00 | 0.00 | 0.00 | 80 | 1014.7 |
| 20260507020455 | 6 | 143 | 1.6 | 4.8 | 0.00 | 0.00 | 0.00 | 80 | 1014.7 |
| 20260507015959 | 6 | 140 | 3.2 | 8.0 | 0.00 | 0.00 | 0.00 | 80 | 1014.7 |
| 20260507015454 | 6 | 132 | 4.8 | 11.3 | 0.00 | 0.00 | 0.00 | 80 | 1014.8 |
| 20260507014955 | 6 | 129 | 4.8 | 11.3 | 0.00 | 0.00 | 0.00 | 80 | 1014.8 |
| 20260507014458 | 6 | 129 | 4.8 | 9.7 | 0.00 | 0.00 | 0.00 | 80 | 1014.8 |
| 20260507013955 | 6 | 123 | 4.8 | 9.7 | 0.00 | 0.00 | 0.00 | 80 | 1014.8 |
| 20260507013455 | 6 | 122 | 1.6 | 9.7 | 0.00 | 0.00 | 0.00 | 80 | 1014.8 |
| 20260507012959 | 6 | 134 | 1.6 | 4.8 | 0.00 | 0.00 | 0.00 | 80 | 1014.8 |
| 20260507011956 | 6 | 0 | 0.0 | 3.2 | 0.00 | 0.00 | 0.00 | 81 | 1014.9 |
| 20260507011458 | 6 | 140 | 1.6 | 6.4 | 0.00 | 0.00 | 0.00 | 81 | 1014.9 |
| 20260507010455 | 6 | 143 | 3.2 | 6.4 | 0.00 | 0.00 | 0.00 | 81 | 1015.0 |
| 20260507005959 | 6 | 142 | 3.2 | 6.4 | 0.00 | 0.00 | 0.00 | 81 | 1015.0 |
| 20260507005455 | 6 | 133 | 3.2 | 6.4 | 0.00 | 0.00 | 0.00 | 81 | 1015.0 |
| 20260507004955 | 6 | 131 | 3.2 | 6.4 | 0.00 | 0.00 | 0.00 | 81 | 1015.0 |
| 20260507004458 | 6 | 136 | 3.2 | 6.4 | 0.00 | 0.00 | 0.00 | 82 | 1015.0 |
| 20260507003957 | 6 | 138 | 3.2 | 6.4 | 0.00 | 0.00 | 0.00 | 82 | 1015.0 |
| 20260507003455 | 6 | 143 | 3.2 | 6.4 | 0.00 | 0.00 | 0.00 | 82 | 1015.1 |
| 20260507003000 | 6 | 144 | 3.2 | 6.4 | 0.00 | 0.00 | 0.00 | 82 | 1015.1 |
| 20260507002457 | 6 | 128 | 1.6 | 6.4 | 0.00 | 0.00 | 0.00 | 83 | 1015.1 |
| 20260507001459 | 6 | 106 | 1.6 | 6.4 | 0.00 | 0.00 | 0.00 | 83 | 1015.1 |
| 20260507000956 | 6 | 108 | 3.2 | 6.4 | 0.00 | 0.00 | 0.00 | 82 | 1015.1 |
| 20260507000456 | 6 | 119 | 3.2 | 8.0 | 0.00 | 0.00 | 0.00 | 83 | 1015.1 |
| 20260506235959 | 6 | 122 | 4.8 | 9.7 | 0.00 | 0.00 | 0.00 | 83 | 1015.1 |
| 20260506235456 | 6 | 122 | 4.8 | 9.7 | 0.00 | 0.00 | 0.00 | 83 | 1015.1 |
| 20260506234957 | 6 | 118 | 4.8 | 9.7 | 0.00 | 0.00 | 0.00 | 82 | 1015.1 |
| 20260506234459 | 6 | 112 | 6.4 | 14.5 | 0.00 | 0.00 | 0.00 | 82 | 1015.1 |
| 20260506233457 | 6 | 104 | 4.8 | 12.9 | 0.00 | 0.00 | 0.00 | 82 | 1015.1 |
| 20260506232457 | 6 | 110 | 8.0 | 16.1 | 0.00 | 0.00 | 0.00 | 82 | 1015.2 |
| 20260506231957 | 6 | 111 | 8.0 | 14.5 | 0.00 | 0.00 | 0.00 | 82 | 1015.2 |
| 20260506231459 | 6 | 120 | 8.0 | 14.5 | 0.00 | 0.00 | 0.00 | 82 | 1015.2 |
| 20260506230956 | 6 | 122 | 8.0 | 16.1 | 0.00 | 0.00 | 0.00 | 83 | 1015.2 |
| 20260506230457 | 6 | 120 | 6.4 | 16.1 | 0.00 | 0.00 | 0.00 | 83 | 1015.0 |
| 20260506230005 | 6 | 123 | 4.8 | 14.5 | 0.00 | 0.00 | 0.00 | 83 | 1015.1 |
| 20260506225457 | 6 | 111 | 4.8 | 14.5 | 0.00 | 0.00 | 0.00 | 84 | 1015.1 |
| 20260506224958 | 6 | 114 | 4.8 | 11.3 | 0.00 | 0.00 | 0.00 | 84 | 1015.1 |
| 20260506223957 | 6 | 115 | 4.8 | 9.7 | 0.00 | 0.00 | 0.00 | 84 | 1015.1 |
| 20260506223000 | 6 | 110 | 1.6 | 9.7 | 0.00 | 0.00 | 0.00 | 83 | 1015.1 |
| 20260506222459 | 6 | 0 | 0.0 | 6.4 | 0.00 | 0.00 | 0.00 | 83 | 1015.1 |
| 20260506221958 | 6 | 0 | 0.0 | 4.8 | 0.00 | 0.00 | 0.00 | 83 | 1015.0 |
| 20260506221501 | 6 | 124 | 1.6 | 4.8 | 0.00 | 0.00 | 0.00 | 82 | 1015.0 |
| 20260506220458 | 6 | 96 | 3.2 | 6.4 | 0.00 | 0.00 | 0.00 | 82 | 1015.0 |
| 20260506220001 | 6 | 84 | 3.2 | 9.7 | 0.00 | 0.00 | 0.00 | 82 | 1014.9 |
| 20260506215457 | 6 | 99 | 1.6 | 9.7 | 0.00 | 0.00 | 0.00 | 83 | 1014.8 |
| 20260506214957 | 6 | 107 | 1.6 | 8.0 | 0.00 | 0.00 | 0.00 | 82 | 1014.7 |
| 20260506214501 | 6 | 69 | 1.6 | 4.8 | 0.00 | 0.00 | 0.00 | 82 | 1014.8 |
| 20260506213957 | 6 | 68 | 3.2 | 4.8 | 0.00 | 0.00 | 0.00 | 81 | 1014.9 |
| 20260506213459 | 6 | 67 | 3.2 | 4.8 | 0.00 | 0.00 | 0.00 | 81 | 1014.8 |
| 20260506212458 | 6 | 91 | 3.2 | 8.0 | 0.00 | 0.00 | 0.00 | 81 | 1014.8 |
| 20260506211958 | 6 | 101 | 3.2 | 6.4 | 0.00 | 0.00 | 0.00 | 80 | 1014.7 |
| 20260506211500 | 7 | 100 | 3.2 | 11.3 | 0.00 | 0.00 | 0.00 | 80 | 1014.7 |
| 20260506210958 | 7 | 94 | 3.2 | 11.3 | 0.00 | 0.00 | 0.00 | 80 | 1014.7 |
| 20260506210459 | 7 | 91 | 3.2 | 8.0 | 0.00 | 0.00 | 0.00 | 79 | 1014.7 |
| 20260506210001 | 7 | 90 | 1.6 | 6.4 | 0.00 | 0.00 | 0.00 | 79 | 1014.8 |
| 20260506204501 | 7 | 113 | 3.2 | 8.0 | 0.00 | 0.00 | 0.00 | 78 | 1014.6 |
| 20260506203959 | 7 | 108 | 4.8 | 9.7 | 0.00 | 0.00 | 0.00 | 78 | 1014.6 |
| 20260506203459 | 7 | 101 | 4.8 | 9.7 | 0.00 | 0.00 | 0.00 | 78 | 1014.6 |
| 20260506201958 | 8 | 99 | 3.2 | 8.0 | 0.00 | 0.00 | 0.00 | 76 | 1014.5 |
| 20260506201502 | 8 | 91 | 3.2 | 6.4 | 0.00 | 0.00 | 0.00 | 75 | 1014.5 |
| 20260506201000 | 8 | 83 | 3.2 | 8.0 | 0.00 | 0.00 | 0.00 | 74 | 1014.4 |
| 20260506200459 | 8 | 91 | 4.8 | 11.3 | 0.00 | 0.00 | 0.00 | 75 | 1014.3 |
| 20260506200001 | 8 | 92 | 4.8 | 11.3 | 0.00 | 0.00 | 0.00 | 74 | 1014.2 |
| 20260506194959 | 8 | 91 | 4.8 | 9.7 | 0.00 | 0.00 | 0.00 | 72 | 1014.2 |
| 20260506194501 | 8 | 95 | 3.2 | 8.0 | 0.00 | 0.00 | 0.00 | 72 | 1014.1 |
| 20260506193959 | 8 | 97 | 4.8 | 8.0 | 0.00 | 0.00 | 0.00 | 71 | 1014.1 |
| 20260506193458 | 9 | 109 | 4.8 | 8.0 | 0.00 | 0.00 | 0.00 | 70 | 1014.0 |
| 20260506192000 | 9 | 98 | 6.4 | 11.3 | 0.00 | 0.00 | 0.00 | 68 | 1013.9 |
| 20260506191502 | 9 | 94 | 4.8 | 11.3 | 0.00 | 0.00 | 0.00 | 67 | 1013.9 |
| 20260506191000 | 10 | 104 | 4.8 | 9.7 | 0.00 | 0.00 | 0.00 | 67 | 1013.9 |
| 20260506190500 | 10 | 110 | 6.4 | 16.1 | 0.00 | 0.00 | 0.00 | 67 | 1013.9 |
| 20260506190002 | 10 | 118 | 6.4 | 16.1 | 0.00 | 0.00 | 0.00 | 66 | 1013.9 |
| 20260506185500 | 10 | 116 | 6.4 | 16.1 | 0.00 | 0.00 | 0.00 | 66 | 1013.9 |
| 20260506184959 | 10 | 116 | 9.7 | 20.9 | 0.00 | 0.00 | 0.00 | 65 | 1013.9 |
| 20260506184504 | 10 | 116 | 9.7 | 20.9 | 0.00 | 0.00 | 0.00 | 64 | 1013.8 |
| 20260506183959 | 10 | 111 | 8.0 | 16.1 | 0.00 | 0.00 | 0.00 | 64 | 1013.7 |